SCP
0 0 0 0 0 0 0 0 0 0 0 0 0 0 -0 0 0 0 0 0 0 0 0 0 -0 -0 0 0 -0 -0 0 0
0 0 0 0 0 0 0 0 0 0 0 0 -0 0 -0 0 0 0 0 0 1 0 0 0 0 0 0 0 0 0 0 0
0 -0 0 0 0 0 0 0 0 0 0 0 0 0 0 0 0 0 0 1 1 1 0 0 0 0 0 0 0 0 0 0
0 0 0 0 0 0 0 0 0 0 0 0 0 0 0 0 0 0 0 0 1 1 1 1 0 0 0 0 0 0 0 0
0 -0 0 0 0 0 0 0 0 0 0 0 0 0 0 0 1 1 1 1 1 1 1 1 1 1 1 0 0 0 0 0
0 0 0 0 0 0 0 0 0 0 0 0 0 0 0 0 -0 0 1 1 1 1 1 2 1 1 1 1 0 0 0 0
0 0 0 0 0 0 0 0 0 0 0 0 0 -0 0 0 0 0 1 1 1 1 1 1 2 2 1 1 1 0 0 0
0 0 0 -0 0 0 0 0 0 0 0 0 0 0 0 0 0 0 0 1 1 1 1 2 1 2 2 2 2 1 1 1
0 0 0 -0 0 0 0 0 0 0 0 0 0 0 0 0 0 0 0 1 1 1 1 2 1 2 2 2 2 2 1 1
0 0 0 0 0 0 0 0 0 0 0 0 0 0 0 0 0 0 0 -0 0 1 1 1 2 2 2 2 2 2 1 1
0 0 0 0 0 0 0 0 0 0 0 0 0 0 0 0 0 0 0 -0 -0 0 1 0 1 2 2 2 2 1 1 1
-0 0 0 0 0 0 0 0 0 0 0 0 0 0 0 0 0 0 0 0 -0 0 0 0 0 2 2 2 2 1 1 1
0 0 0 0 0 0 0 0 0 0 0 0 0 0 0 0 0 0 0 0 0 0 0 0 0 2 2 2 2 1 1 0
0 0 0 0 0 0 0 0 0 0 0 0 0 0 0 0 0 0 0 0 0 0 1 0 0 2 2 1 1 1 1 0
0 0 0 0 0 0 0 0 -0 0 0 0 0 0 0 0 0 0 0 0 0 0 1 1 1 1 1 1 0 1 0 0
0 0 0 0 0 0 -0 -0 0 0 0 0 0 0 0 0 0 0 0 0 0 0 0 1 2 2 2 1 0 0 0 0
0 0 0 -0 -0 -0 -0 0 0 0 0 0 0 0 0 0 0 0 0 0 0 0 0 1 3 3 3 3 1 0 0 0
0 -0 -0 -0 0 0 -0 0 0 0 0 0 0 0 0 0 0 0 0 0 0 0 0 0 2 3 3 3 3 1 1 1
0 0 0 0 0 0 0 0 0 0 0 0 0 0 0 0 -0 0 0 0 0 0 0 0 1 2 1 0 0 2 2 1
0 0 0 0 0 0 0 0 0 0 0 0 0 -0 -0 -0 -0 0 0 0 0 0 0 0 0 1 1 0 0 0 1 1
Wind_Speed_500mb
7 7 11 10 8 9 29 34 24 11 27 10 9 17 22 19 21 20 19 25 40 43 46 45 46 44 42 39 39 40 41 41
7 11 15 10 23 33 16 25 44 27 15 17 15 9 21 23 14 18 17 16 39 42 44 47 47 46 44 41 40 39 39 40
1 14 12 10 25 50 12 4 28 27 11 23 35 34 20 15 13 14 17 10 21 43 43 45 45 46 46 44 41 39 40 41
5 11 12 15 39 16 6 27 27 21 18 17 36 33 34 21 6 4 6 6 8 32 43 43 44 45 47 46 43 41 40 41
7 12 14 11 41 21 11 18 21 15 10 22 34 32 24 28 18 3 13 17 16 17 35 41 42 45 47 48 45 42 41 42
5 9 11 21 19 45 39 13 11 15 5 4 28 23 22 22 21 12 9 28 28 24 18 36 46 47 48 50 50 46 43 43
8 8 6 16 18 31 24 36 23 21 15 20 20 20 15 9 15 14 16 17 34 31 24 28 45 51 53 55 54 51 48 46
14 4 7 3 15 26 17 23 19 37 29 27 26 24 18 13 7 22 13 17 42 40 34 33 32 54 58 59 62 60 56 52
25 27 9 9 12 15 11 9 23 28 36 40 45 39 33 33 28 28 24 14 20 45 41 41 36 40 64 65 66 66 62 56
14 29 21 10 23 14 19 31 38 39 37 36 38 38 44 44 34 38 38 32 27 23 55 48 44 39 53 67 67 68 68 61
50 51 47 29 25 16 39 48 36 32 30 35 39 41 41 45 46 43 41 38 33 25 31 51 45 45 57 65 68 68 67 65
39 54 50 13 29 18 58 54 48 41 36 39 47 47 42 38 42 43 39 39 36 29 28 34 52 49 49 59 64 65 66 68
9 15 19 6 16 16 63 62 65 57 46 45 53 53 54 48 43 44 44 32 36 29 30 32 39 51 57 52 56 58 65 64
16 7 16 15 15 26 41 23 24 39 49 53 53 52 54 55 51 47 47 45 34 35 30 33 39 50 52 60 57 57 56 56
18 17 6 3 14 13 43 33 34 47 54 46 33 25 18 22 41 52 53 50 49 45 42 43 38 44 51 60 64 63 63 58
11 14 15 14 16 21 44 28 39 48 51 60 59 57 44 35 29 25 28 54 58 52 52 46 50 42 56 68 69 65 67 65
13 11 5 9 14 31 46 47 41 49 48 54 66 54 43 44 34 31 21 21 39 61 59 63 57 61 56 68 78 71 75 66
11 14 11 16 20 14 19 21 38 38 45 58 79 81 76 70 65 48 45 38 34 37 60 68 71 62 63 68 72 81 75 78
13 15 10 7 10 9 9 28 34 49 54 64 62 76 88 80 76 71 66 60 53 53 48 61 75 72 67 63 72 69 77 80
19 8 10 7 8 3 2 17 20 38 53 57 69 75 69 78 77 71 65 53 50 52 52 47 65 84 84 82 76 80 67 85
Wind_Direction_500mb
102 130 187 226 270 295 319 317 350 101 70 78 98 108 133 150 140 151 150 171 181 185 183 184 184 179 173 172 175 176 176 175
89 248 259 239 283 290 288 280 35 115 81 82 107 89 139 132 134 153 154 164 192 191 192 187 186 187 183 178 177 180 181 183
61 261 269 281 270 276 235 95 45 77 37 78 101 106 118 110 118 149 154 175 198 200 199 196 191 190 192 187 182 182 187 189
260 268 299 300 327 315 44 62 37 50 106 86 92 78 55 51 180 173 217 203 194 207 207 205 201 196 196 197 191 187 190 194
291 276 344 339 5 10 341 40 37 65 90 103 71 18 22 20 39 230 234 242 232 205 216 215 212 207 202 200 200 195 193 196
277 296 283 335 9 10 14 24 11 45 83 286 340 355 350 345 352 352 309 253 234 229 225 226 222 218 211 206 203 204 201 200
258 308 283 346 12 360 345 9 358 0 29 358 359 356 347 24 332 354 329 260 232 232 232 223 224 223 220 211 208 206 208 206
220 273 286 11 26 338 358 355 342 332 301 325 336 338 341 331 320 4 8 263 219 229 253 233 233 227 222 217 211 209 209 211
275 287 287 322 334 309 306 298 298 298 306 311 313 317 312 308 302 301 317 331 277 246 238 250 246 234 225 219 215 212 211 212
287 327 320 308 308 302 261 279 291 289 292 293 297 302 301 296 294 288 300 306 293 291 240 241 246 243 237 221 218 216 214 212
324 315 312 308 289 272 285 285 283 286 293 289 283 281 278 287 286 293 291 291 299 287 259 244 239 242 233 228 225 222 219 218
310 304 296 263 290 333 286 279 286 287 278 271 267 263 269 273 277 273 281 280 285 276 263 253 258 259 249 237 231 226 225 223
310 287 288 54 317 253 277 277 269 267 263 261 258 257 252 259 269 266 270 277 284 270 259 242 252 256 260 249 241 233 231 229
299 290 282 130 259 275 303 317 306 287 291 276 260 258 254 253 257 260 262 264 259 264 245 246 236 257 254 252 245 242 237 236
310 296 328 70 276 280 326 345 23 51 58 56 42 38 14 320 280 261 256 259 250 249 259 253 239 244 256 246 243 242 247 240
252 294 354 340 309 309 338 57 68 55 37 34 24 16 14 12 17 24 306 259 248 253 246 255 251 238 244 248 241 243 243 243
285 296 327 288 305 5 54 51 49 48 36 15 4 357 355 348 335 333 332 336 280 255 251 243 246 245 237 240 245 237 236 241
289 309 341 332 318 99 76 63 59 38 18 3 356 350 345 336 328 307 299 294 294 290 261 250 243 252 252 239 241 246 240 235
273 301 293 298 310 180 74 58 39 26 10 1 351 345 343 337 325 312 297 287 276 272 276 261 248 247 249 245 241 241 237 233
304 316 275 110 270 10 105 48 28 9 359 348 341 339 334 333 328 322 305 296 287 271 271 272 251 244 244 246 246 249 240 236
Wind_Speed_850mb
7 7 11 10 8 9 29 34 24 11 27 10 9 17 22 19 21 20 19 25 40 43 46 45 46 44 42 39 39 40 41 41
7 11 15 10 23 33 16 25 44 27 15 17 15 9 21 23 14 18 17 16 39 42 44 47 47 46 44 41 40 39 39 40
1 14 12 10 25 50 12 4 28 27 11 23 35 34 20 15 13 14 17 10 21 43 43 45 45 46 46 44 41 39 40 41
5 11 12 15 39 16 6 27 27 21 18 17 36 33 34 21 6 4 6 6 8 32 43 43 44 45 47 46 43 41 40 41
7 12 14 11 41 21 11 18 21 15 10 22 34 32 24 28 18 3 13 17 16 17 35 41 42 45 47 48 45 42 41 42
5 9 11 21 19 45 39 13 11 15 5 4 28 23 22 22 21 12 9 28 28 24 18 36 46 47 48 50 50 46 43 43
8 8 6 16 18 31 24 36 23 21 15 20 20 20 15 9 15 14 16 17 34 31 24 28 45 51 53 55 54 51 48 46
14 4 7 3 15 26 17 23 19 37 29 27 26 24 18 13 7 22 13 17 42 40 34 33 32 54 58 59 62 60 56 52
25 27 9 9 12 15 11 9 23 28 36 40 45 39 33 33 28 28 24 14 20 45 41 41 36 40 64 65 66 66 62 56
14 29 21 10 23 14 19 31 38 39 37 36 38 38 44 44 34 38 38 32 27 23 55 48 44 39 53 67 67 68 68 61
50 51 47 29 25 16 39 48 36 32 30 35 39 41 41 45 46 43 41 38 33 25 31 51 45 45 57 65 68 68 67 65
39 54 50 13 29 18 58 54 48 41 36 39 47 47 42 38 42 43 39 39 36 29 28 34 52 49 49 59 64 65 66 68
9 15 19 6 16 16 63 62 65 57 46 45 53 53 54 48 43 44 44 32 36 29 30 32 39 51 57 52 56 58 65 64
16 7 16 15 15 26 41 23 24 39 49 53 53 52 54 55 51 47 47 45 34 35 30 33 39 50 52 60 57 57 56 56
18 17 6 3 14 13 43 33 34 47 54 46 33 25 18 22 41 52 53 50 49 45 42 43 38 44 51 60 64 63 63 58
11 14 15 14 16 21 44 28 39 48 51 60 59 57 44 35 29 25 28 54 58 52 52 46 50 42 56 68 69 65 67 65
13 11 5 9 14 31 46 47 41 49 48 54 66 54 43 44 34 31 21 21 39 61 59 63 57 61 56 68 78 71 75 66
11 14 11 16 20 14 19 21 38 38 45 58 79 81 76 70 65 48 45 38 34 37 60 68 71 62 63 68 72 81 75 78
13 15 10 7 10 9 9 28 34 49 54 64 62 76 88 80 76 71 66 60 53 53 48 61 75 72 67 63 72 69 77 80
19 8 10 7 8 3 2 17 20 38 53 57 69 75 69 78 77 71 65 53 50 52 52 47 65 84 84 82 76 80 67 85
Wind_Direction_850mb
102 130 187 226 270 295 319 317 350 101 70 78 98 108 133 150 140 151 150 171 181 185 183 184 184 179 173 172 175 176 176 175
89 248 259 239 283 290 288 280 35 115 81 82 107 89 139 132 134 153 154 164 192 191 192 187 186 187 183 178 177 180 181 183
61 261 269 281 270 276 235 95 45 77 37 78 101 106 118 110 118 149 154 175 198 200 199 196 191 190 192 187 182 182 187 189
260 268 299 300 327 315 44 62 37 50 106 86 92 78 55 51 180 173 217 203 194 207 207 205 201 196 196 197 191 187 190 194
291 276 344 339 5 10 341 40 37 65 90 103 71 18 22 20 39 230 234 242 232 205 216 215 212 207 202 200 200 195 193 196
277 296 283 335 9 10 14 24 11 45 83 286 340 355 350 345 352 352 309 253 234 229 225 226 222 218 211 206 203 204 201 200
258 308 283 346 12 360 345 9 358 0 29 358 359 356 347 24 332 354 329 260 232 232 232 223 224 223 220 211 208 206 208 206
220 273 286 11 26 338 358 355 342 332 301 325 336 338 341 331 320 4 8 263 219 229 253 233 233 227 222 217 211 209 209 211
275 287 287 322 334 309 306 298 298 298 306 311 313 317 312 308 302 301 317 331 277 246 238 250 246 234 225 219 215 212 211 212
287 327 320 308 308 302 261 279 291 289 292 293 297 302 301 296 294 288 300 306 293 291 240 241 246 243 237 221 218 216 214 212
324 315 312 308 289 272 285 285 283 286 293 289 283 281 278 287 286 293 291 291 299 287 259 244 239 242 233 228 225 222 219 218
310 304 296 263 290 333 286 279 286 287 278 271 267 263 269 273 277 273 281 280 285 276 263 253 258 259 249 237 231 226 225 223
310 287 288 54 317 253 277 277 269 267 263 261 258 257 252 259 269 266 270 277 284 270 259 242 252 256 260 249 241 233 231 229
299 290 282 130 259 275 303 317 306 287 291 276 260 258 254 253 257 260 262 264 259 264 245 246 236 257 254 252 245 242 237 236
310 296 328 70 276 280 326 345 23 51 58 56 42 38 14 320 280 261 256 259 250 249 259 253 239 244 256 246 243 242 247 240
252 294 354 340 309 309 338 57 68 55 37 34 24 16 14 12 17 24 306 259 248 253 246 255 251 238 244 248 241 243 243 243
285 296 327 288 305 5 54 51 49 48 36 15 4 357 355 348 335 333 332 336 280 255 251 243 246 245 237 240 245 237 236 241
289 309 341 332 318 99 76 63 59 38 18 3 356 350 345 336 328 307 299 294 294 290 261 250 243 252 252 239 241 246 240 235
273 301 293 298 310 180 74 58 39 26 10 1 351 345 343 337 325 312 297 287 276 272 276 261 248 247 249 245 241 241 237 233
304 316 275 110 270 10 105 48 28 9 359 348 341 339 334 333 328 322 305 296 287 271 271 272 251 244 244 246 246 249 240 236